Location: Lake Zurich
(42.1970°N, 88.0930°W)
Time: 05:00:31
(UTC-05:00)

Amateur Radio Satellites - All Passes

Search period start: 17 April 2014 04:30
Search period end: 18 April 2014 04:30
Location: Lake Zurich, 42.1970°N, 88.0930°W

Satellite Date Start Highest point End Downlink Frequencies (MHz)
Time Altitude Azimuth
TMSAT-1 17 Apr 04:42:19 04:47:32 61° 288° (WNW) 04:52:44 436.925 FM
JAS-1B 17 Apr 04:47:27 04:53:07 65° 102° (ESE) 04:58:53 435.800 - 435.900 CW/SSB
AO-7 17 Apr 04:58:58 05:06:55 47° 100° (E) 05:14:50 29.400 - 29.500 MHz
UOSAT-12 17 Apr 05:02:24 05:03:49 11° 253° (WSW) 05:05:14 437.025 FM, 437.400 FM
AO-Echo 17 Apr 05:04:44 05:05:45 11° 302° (WNW) 05:06:46 ?
Uosat F 17 Apr 05:17:24 05:22:24 74° 286° (WNW) 05:27:23 435.120 FM
Gurwin Techsat 1B 17 Apr 05:33:35 05:36:57 17° 299° (WNW) 05:40:19 435.225 FM
STRAND 1 17 Apr 06:00:18 06:04:57 37° 68° (ENE) 06:09:37 ?
RS-15 17 Apr 06:20:27 06:30:07 34° 106° (ESE) 06:39:28 29.354 - 29.394 USB, Beacon 29.352 USB
KITSAT 1 17 Apr 06:23:56 06:29:45 21° 330° (NNW) 06:35:34 435.175 FM
Hamsat 17 Apr 06:34:23 06:38:17 31° 96° (E) 06:42:10 145.90 MHz
JAS-1B 17 Apr 06:39:38 06:43:16 18° 301° (WNW) 06:46:54 435.800 - 435.900 CW/SSB
AO-7 17 Apr 06:51:59 06:59:35 42° 299° (WNW) 07:07:12 29.400 - 29.500 MHz
MaSat-1 17 Apr 07:00:39 07:02:56 21° 59° (ENE) 07:05:28 437.345 MHz
AO-40 17 Apr 07:01:47 09:41:55 21° 133° (SE) 11:01:45 Beacon 2401.320
JAS-2 17 Apr 07:33:27 07:38:28 40° 99° (E) 07:43:52 435.800 - 435.900 CW/SSB, 435.910 FM
STRAND 1 17 Apr 07:39:52 07:44:11 27° 265° (W) 07:48:33 ?
SO-67 17 Apr 08:08:06 08:11:37 71° 101° (E) 08:15:06 435.3500 MHz FM
Hamsat 17 Apr 08:10:38 08:14:08 24° 292° (WNW) 08:17:37 145.90 MHz
KITSAT 1 17 Apr 08:26:11 08:29:04 12° 1° (N) 08:31:57 435.175 FM
HO-68 17 Apr 08:27:19 08:29:54 12° 87° (E) 08:32:28 435.675 MHz FM
RS-15 17 Apr 08:30:23 08:41:39 70° 307° (NW) 08:52:38 29.354 - 29.394 USB, Beacon 29.352 USB
MaSat-1 17 Apr 08:39:09 08:41:17 18° 249° (WSW) 08:43:39 437.345 MHz
PCSat 17 Apr 08:43:17 08:46:32 16° 39° (NE) 08:49:46 145.825 MHz
JAS-2 17 Apr 09:19:04 09:23:27 27° 294° (WNW) 09:28:07 435.800 - 435.900 CW/SSB, 435.910 FM
Oscar 11 17 Apr 09:38:36 09:41:09 15° 91° (E) 09:43:40 145.825 FM, Beacon 2401.500 USB
Sapphire 17 Apr 09:40:29 09:45:26 34° 51° (NE) 09:50:20 437.095 MHz 1200 baud AX-25 AFSK
HO-68 17 Apr 10:11:31 10:18:43 74° 105° (ESE) 10:25:54 435.675 MHz FM
KITSAT 1 17 Apr 10:22:24 10:28:20 21° 31° (NNE) 10:34:13 435.175 FM
PCSat 17 Apr 10:25:23 10:30:51 80° 60° (ENE) 10:36:16 145.825 MHz
RS-15 17 Apr 10:47:22 10:56:25 28° 336° (NNW) 11:05:22 29.354 - 29.394 USB, Beacon 29.352 USB
FUNcube-1 17 Apr 10:56:20 11:00:10 33° 97° (E) 11:04:04 145.950 - 145.970 MHz USB
Saudisat 1A 17 Apr 11:08:23 11:12:02 25° 113° (ESE) 11:15:42 436.775 MHz
Oscar 11 17 Apr 11:13:24 11:17:37 50° 287° (WNW) 11:21:49 145.825 FM, Beacon 2401.500 USB
Sapphire 17 Apr 11:23:55 11:28:51 37° 249° (WSW) 11:33:46 437.095 MHz 1200 baud AX-25 AFSK
PANSAT 17 Apr 11:45:42 11:46:32 11° 181° (S) 11:47:22 not established
HO-68 17 Apr 12:00:21 12:05:44 24° 303° (WNW) 12:11:07 435.675 MHz FM
PCSat 17 Apr 12:10:47 12:13:32 14° 257° (WSW) 12:16:16 145.825 MHz
KITSAT 1 17 Apr 12:17:16 12:25:22 69° 55° (NE) 12:33:24 435.175 FM
ITAMSAT 1 17 Apr 12:30:50 12:32:35 12° 57° (ENE) 12:34:20 435.822 SSB
FUNcube-1 17 Apr 12:33:10 12:36:26 22° 293° (WNW) 12:39:45 145.950 - 145.970 MHz USB
Oscar 19 17 Apr 12:38:12 12:42:17 25° 64° (ENE) 12:46:23 437.125 CW, 437.150 USB
Oscar 16 17 Apr 12:45:38 12:50:03 30° 66° (ENE) 12:54:31 437.025 USB, Beacon 2401.1428
Saudisat 1A 17 Apr 12:47:18 12:51:28 38° 311° (NW) 12:55:40 436.775 MHz
AO-Echo 17 Apr 12:59:33 13:02:52 17° 62° (ENE) 13:06:08 ?
RS-15 17 Apr 13:05:35 13:13:49 23° 12° (NNE) 13:22:02 29.354 - 29.394 USB, Beacon 29.352 USB
Uribyol 2 17 Apr 13:16:34 13:21:04 31° 67° (ENE) 13:25:35 436.500 FM
Gurwin Techsat 1B 17 Apr 13:36:52 13:39:54 16° 60° (ENE) 13:42:55 435.225 FM
JAS-1B 17 Apr 13:47:13 13:49:53 12° 54° (NE) 13:52:26 435.800 - 435.900 CW/SSB
AO-27 17 Apr 13:54:47 13:59:56 68° 73° (ENE) 14:05:06 436.795 MHz FM
ITAMSAT 1 17 Apr 14:06:04 14:11:15 83° 74° (ENE) 14:16:28 435.822 SSB
AO-7 17 Apr 14:10:42 14:15:10 16° 46° (NE) 14:19:38 29.400 - 29.500 MHz
KITSAT 1 17 Apr 14:13:36 14:20:06 28° 255° (WSW) 14:26:35 435.175 FM
Oscar 19 17 Apr 14:16:30 14:21:22 43° 262° (W) 14:26:17 437.125 CW, 437.150 USB
Oscar 16 17 Apr 14:24:42 14:29:19 34° 263° (W) 14:34:00 437.025 USB, Beacon 2401.1428
TMSAT-1 17 Apr 14:24:45 14:29:14 29° 66° (ENE) 14:33:44 436.925 FM
AO-Echo 17 Apr 14:35:53 14:41:07 67° 258° (WSW) 14:46:16 ?
Uosat F 17 Apr 14:54:08 14:57:48 21° 63° (ENE) 15:01:27 435.120 FM
Uribyol 2 17 Apr 14:55:52 15:00:29 33° 263° (W) 15:05:07 436.500 FM
SO-50 17 Apr 14:59:38 15:00:56 11° 107° (ESE) 15:02:13 436.795 FM
Gurwin Techsat 1B 17 Apr 15:13:55 15:19:13 76° 257° (WSW) 15:24:33 435.225 FM
RS-15 17 Apr 15:19:08 15:29:41 50° 44° (NE) 15:40:24 29.354 - 29.394 USB, Beacon 29.352 USB
JAS-1B 17 Apr 15:31:22 15:39:31 64° 71° (ENE) 15:46:19 435.800 - 435.900 CW/SSB
OPAL 17 Apr 15:35:30 15:40:41 64° 104° (ESE) 15:45:51 ?
AO-27 17 Apr 15:37:01 15:39:56 15° 270° (W) 15:42:52 436.795 MHz FM
ITAMSAT 1 17 Apr 15:49:35 15:51:23 12° 271° (W) 15:53:11 435.822 SSB
AO-7 17 Apr 15:58:15 16:06:24 65° 67° (ENE) 16:14:34 29.400 - 29.500 MHz
TMSAT-1 17 Apr 16:04:08 16:09:01 37° 263° (W) 16:13:55 436.925 FM
ISS 17 Apr 16:23:19 16:26:38 62° 142° (SE) 16:29:57 145.800 FM
Uosat F 17 Apr 16:31:20 16:36:13 50° 260° (W) 16:41:07 435.120 FM
SO-50 17 Apr 16:36:20 16:40:49 80° 304° (NW) 16:45:21 436.795 FM
OPAL 17 Apr 17:15:34 17:19:04 19° 301° (WNW) 17:22:34 ?
JAS-1B 17 Apr 17:23:43 17:30:20 26° 265° (W) 17:36:10 435.800 - 435.900 CW/SSB
Hamsat 17 Apr 17:28:52 17:32:16 24° 68° (ENE) 17:35:41 145.90 MHz
RS-15 17 Apr 17:31:43 17:42:10 54° 248° (WSW) 17:52:56 29.354 - 29.394 USB, Beacon 29.352 USB
UOSAT-12 17 Apr 17:32:19 17:35:51 22° 112° (ESE) 17:39:26 437.025 FM, 437.400 FM
JAS-2 17 Apr 17:48:19 17:52:09 19° 63° (ENE) 17:55:47 435.800 - 435.900 CW/SSB, 435.910 FM
AO-7 17 Apr 17:52:52 17:59:42 28° 265° (W) 18:06:35 29.400 - 29.500 MHz
ISS 17 Apr 18:00:43 18:03:36 26° 340° (NNW) 18:06:30 145.800 FM
STRAND 1 17 Apr 18:12:51 18:14:14 11° 88° (E) 18:15:37 ?
SO-50 17 Apr 18:19:50 18:22:09 14° 324° (NW) 18:24:29 436.795 FM
SO-67 17 Apr 18:42:45 18:45:40 25° 71° (ENE) 18:48:36 435.3500 MHz FM
HO-68 17 Apr 18:58:29 19:00:57 12° 48° (NE) 19:03:25 435.675 MHz FM
Hamsat 17 Apr 19:04:29 19:08:08 29° 264° (W) 19:11:50 145.90 MHz
UOSAT-12 17 Apr 19:11:20 19:15:43 44° 310° (NW) 19:20:12 437.025 FM, 437.400 FM
JAS-2 17 Apr 19:30:56 19:36:52 63° 258° (WSW) 19:42:15 435.800 - 435.900 CW/SSB, 435.910 FM
Saudisat 1A 17 Apr 19:34:18 19:38:03 26° 45° (NE) 19:41:46 436.775 MHz
ISS 17 Apr 19:38:59 19:41:12 16° 0° (N) 19:43:24 145.800 FM
STRAND 1 17 Apr 19:48:57 19:54:05 85° 285° (WNW) 19:59:10 ?
SO-67 17 Apr 20:16:20 20:18:50 18° 266° (W) 20:21:20 435.3500 MHz FM
Oscar 11 17 Apr 20:35:07 20:37:17 14° 63° (ENE) 20:39:27 145.825 FM, Beacon 2401.500 USB
HO-68 17 Apr 20:40:14 20:47:11 59° 68° (ENE) 20:54:10 435.675 MHz FM
Saudisat 1A 17 Apr 21:13:40 21:17:46 38° 244° (WSW) 21:21:49 436.775 MHz
ISS 17 Apr 21:15:50 21:18:46 27° 21° (NNE) 21:21:42 145.800 FM
STRAND 1 17 Apr 21:30:46 21:32:28 12° 303° (WNW) 21:34:10 ?
FUNcube-1 17 Apr 21:53:51 21:57:28 28° 69° (ENE) 22:01:04 145.950 - 145.970 MHz USB
Oscar 11 17 Apr 22:08:44 22:12:59 59° 259° (W) 22:17:16 145.825 FM, Beacon 2401.500 USB
HO-68 17 Apr 22:29:24 22:35:15 27° 266° (W) 22:41:10 435.675 MHz FM
MaSat-1 17 Apr 22:42:54 22:45:36 32° 299° (WNW) 22:48:01 437.345 MHz
ISS 17 Apr 22:52:24 22:55:42 56° 219° (SW) 22:59:00 145.800 FM
SO-50 17 Apr 23:27:59 23:31:04 17° 39° (NE) 23:34:09 436.795 FM
FUNcube-1 17 Apr 23:30:27 23:33:53 24° 265° (W) 23:37:19 145.950 - 145.970 MHz USB
Sapphire 18 Apr 00:23:31 00:27:57 27° 108° (ESE) 00:32:24 437.095 MHz 1200 baud AX-25 AFSK
PCSat 18 Apr 01:07:26 01:12:46 68° 116° (ESE) 01:18:10 145.825 MHz
SO-50 18 Apr 01:07:32 01:12:11 80° 238° (WSW) 01:16:54 436.795 FM
OPAL 18 Apr 01:14:46 01:17:50 16° 58° (ENE) 01:20:56 ?
UOSAT-12 18 Apr 02:00:37 02:04:38 27° 45° (NE) 02:08:36 437.025 FM, 437.400 FM
Sapphire 18 Apr 02:05:56 02:11:07 46° 306° (NW) 02:16:20 437.095 MHz 1200 baud AX-25 AFSK
AO-27 18 Apr 02:08:05 02:12:09 23° 94° (E) 02:16:12 436.795 MHz FM
Oscar 10/S400 18 Apr 02:11:53 02:28:40 25° 130° (SE) 03:09:04 145.825 - 145.975 CW/USB, Beacon 145.810 USB
ITAMSAT 1 18 Apr 02:18:59 02:23:25 28° 95° (E) 02:27:51 435.822 SSB
Oscar 19 18 Apr 02:27:14 02:32:25 65° 102° (ESE) 02:37:35 437.125 CW, 437.150 USB
Oscar 16 18 Apr 02:35:11 02:40:25 82° 104° (ESE) 02:45:37 437.025 USB, Beacon 2401.1428
AO-Echo 18 Apr 02:43:12 02:47:39 37° 97° (E) 02:52:00 ?
KITSAT 1 18 Apr 02:46:04 02:53:35 44° 110° (ESE) 03:01:08 435.175 FM
OPAL 18 Apr 02:51:09 02:56:08 69° 256° (WSW) 03:01:14 ?
PCSat 18 Apr 02:52:34 02:56:42 22° 316° (NW) 03:00:51 145.825 MHz
Uribyol 2 18 Apr 03:07:21 03:12:33 85° 104° (ESE) 03:17:44 436.500 FM
JAS-1B 18 Apr 03:19:41 03:20:36 10° 88° (E) 03:21:32 435.800 - 435.900 CW/SSB
Gurwin Techsat 1B 18 Apr 03:29:49 03:34:51 42° 98° (E) 03:39:51 435.225 FM
UOSAT-12 18 Apr 03:40:28 03:44:57 44° 243° (WSW) 03:49:24 437.025 FM, 437.400 FM
AO-27 18 Apr 03:46:57 03:51:52 44° 290° (WNW) 03:56:45 436.795 MHz FM
Sapphire 18 Apr 03:55:20 03:55:59 10° 328° (NNW) 03:56:38 437.095 MHz 1200 baud AX-25 AFSK
ITAMSAT 1 18 Apr 03:58:16 04:02:57 36° 292° (WNW) 04:07:38 435.822 SSB
AO-7 18 Apr 04:00:43 04:06:18 19° 91° (E) 04:11:52 29.400 - 29.500 MHz
Oscar 19 18 Apr 04:07:54 04:11:14 18° 299° (WNW) 04:14:33 437.125 CW, 437.150 USB
Oscar 16 18 Apr 04:16:28 04:19:04 14° 301° (WNW) 04:21:41 437.025 USB, Beacon 2401.1428
TMSAT-1 18 Apr 04:18:55 04:24:15 84° 104° (ESE) 04:29:32 436.925 FM
AO-Echo 18 Apr 04:22:24 04:26:14 24° 295° (WNW) 04:30:00 ?
